Location: Friaudour
(46.0460°N, 1.2873°E)
Time: 10:32:57
(UTC+00:00)

IRS-1C - Pass Details

Date: 14 July 2020
Orbit: 815 x 817 km, 98.8° (Epoch: 05 August)

Event Time Altitude Azimuth Distance (km) Brightness Sun altitude
Rises 02:51:39 0° 12° (NNE) 3,354 8.5 -12.1°
Reaches altitude 10° 02:54:00 10° 11° (N) 2,418 7.6 -11.8°
Maximum altitude 02:59:19 72° 288° (WNW) 859 4.2 -11.2°
Enters shadow 03:04:12 12° 205° (SSW) 2,239 5.8 -10.6°
